カタログに戻る

SL-16 DEB

運用中LEO
NORAD 22330·DEBRIS·🇷🇺 Russia

打ち上げ Dec 25, 1992 から Baikonur Cosmodrome

Loading…

次のパス (今後24時間)

TLE

最新Source: Space-Track

元期: Sep 14, 2026, 15:34 UTC

1 22330U 92093T   26257.64908360  .00000192  00000-0  13082-3 0  9990
2 22330  70.4168  23.2902 0112144 251.5601 121.1080 14.09800361726739

AllMySatでSL-16 DEBをリアルタイム追跡

Download on the App Store